Location: *
(50.8160°S, 176.0219°W)
Time: 00:35:00
(UTC+00:00)

Cosmos 2322 Rocket - Pass Details

Date: 19 May 2026
Orbit: 831 x 850 km, 71.0° (Epoch: 9 June)

Event Time Altitude Azimuth Distance (km) Brightness Sun altitude
Exits shadow 18:38:58 - 208° (SSW) 3,422 4.9 -6.6°
Reaches altitude 10° 18:41:47 10° 196° (SSW) 2,496 4.3 -6.1°
Maximum altitude 18:46:38 27° 138° (SE) 1,572 3.8 -5.5°
Drops below altitude 10° 18:51:25 10° 80° (E) 2,468 6.2 -4.8°
Sets 18:54:14 0° 68° (ENE) 3,393 8.2 -4.4°
